TRANSIT 18 DEB, 35416

Orbit data source: Space-Track

TRANSIT 18 DEB, 35416 is space debris in LEO originally from a launch on Sat, 02 Mar 1968 UTC launched from the Air Force Western Test Range (AFWTR). Debris objects in space refer to the collection of defunct objects orbiting the Earth. Examples of debris include non-operational satellites, rocket bodies, and fragments generated from explosions, collisions, or faulty payload assembly.

Loading next visibility...
Identifier
35416, 1968-012F
Orbit
LEO
Country
Flag of USUS
Related business
Manufacturer
Unknown
Mission
Spacecraft
Bus & Motor
Unknown
Mass
Unknown
Launch date (UTC)
1968-03-02 (58 years ago)
Launch vehicle
Unknown
Launch site
Air Force Western Test Range (AFWTR)
Object type
Payload
Rocket body
Debris
Shape & HBR
Unknown shape, 0.2 m
Radar Cross Section
Medium (>0.1 m² and <1 m²)

Expand to show TLE details & history
Last TLE update: 8 hours ago

TLE from 8 hours ago
0 TRANSIT 18 DEB
1 35416U 68012F   25352.82424005  .00000936  00000-0  12491-2 0  9995
2 35416  90.0227 273.0093 0067940  56.2819   5.5398 13.58707846830046
Epoch: 2025-12-18T19:46Z
TLE epoch observation values (Epoch: 2025-12-18T19:46:54.340Z)
Latitude
61.9857°
Longitude
-111.43377°
Altitude
1,000.924 km
Speed
7.382 km/s
True Right ascension
18h 11m 52s
True Declination
61° 50' 51"
Sunlit
Object was in daylight at epoch
Visualization orbit readout
Latitude
Unknown
Longitude
Unknown
Altitude
Unknown
Speed
Unknown
Apparent Right ascension
Unknown
Apparent Declination
Unknown
Sunlit
N/A
Visualization observer readout
Local Sidereal Time
02:55:13
Azimuth
Unknown
Elevation
Unknown
Doppler factor
Unknown
Orbital elements
Apogee altitude
1,087.81 km
Perigee altitude
987.047 km
Semi-major axis
7,415.566 km
Eccentricity
0.00679
Inclination
90.0227°
RAAN
273.0093°
Arg. of periapsis
56.2819°
True anomaly
5.6156°
Mean anomaly
5.5398°
Eccentric anomaly
5.57763°
Mean motion
3.39881 °/min
Orbital period
105.92 mins
BSTAR
0.0012491
Loading maneuver chart data...
Computing Atmospheric mass density...
Loading historical data...
Loading historical data...
Loading historical data...
Loading historical data...
Loading historical data...
Loading historical data...
Loading historical data...

Documentation

Showing up to 5 results
|